Hoosier Classic - Training 65 Miles - Hens First

Station: Brookston - T Race

Distance: 65 Miles

Release: 16-May-2018 08:55

Weather Release:    Arrival:

Wind at Release:     Wind at Arrival:

Temp at Release: °    Temp at Arrival: °

Lofts: 96

Birds: 325

Clocked: 291

Good Luck to Everyone!
Drops Pos Breeder Pigeon Name Color Sex Ent Arrival Speed To Win Eligible BronzeSilverGoldPlatinum
1 Speed Loft - MN 0514-AU17-ROYA DCH H 1 10:31:35.40 1184.388 00:00:00 Yes
2 Book & Van Wingerden - AZ 7039-AU17-BOOK BB H 1 10:31:36.30 1184.204 00:00:01 Yes
3 Andy Skwiat - IN 0009-AU17-ANDY Medusa BB H 1 10:31:36.80 1184.102 00:00:01 Yes
4 Andy Skwiat - IN 1405-AU17-HRPC BCH H 2 10:31:39.20 1183.612 00:00:04 Yes
5 Jones Family Loft - TX 7197-AU17-JFL BCH H 1 10:31:40.80 1183.285 00:00:05 Yes
5 Mc Laughlin Lofts - MA 1038-AU17-MCLO BB H 1 10:31:40.80 1183.285 00:00:05 Yes
7 Andy Skwiat - IN 8821-AU17-KV BB H 3 10:31:43.00 1182.836 00:00:08 Yes
8 Alca Girls - IL 62000-AU17-ARPU Mo BB H 1 10:31:44.60 1182.510 00:00:09 Yes
9 Andy Skwiat - IN 0014-AU17-ANDY BSP C 4 10:31:46.80 1182.062 00:00:11 Yes
10 Andy Skwiat - IN 0078-CU17-SILV DCH H 5 10:31:47.90 1181.839 00:00:12 Yes
11 Aubrina & Pappy - IN 0931-AU17-VK DCSP H 1 10:31:48.60 1181.696 00:00:13 Yes
12 Master One - CA 0045-AU17-MAST BB C 1 10:31:50.40 1181.330 00:00:15 Yes
13 Bill Kluge - TX 1734-AU17-COLD 10 BB C 1 10:31:52.50 1180.903 00:00:17 Yes
14 Avalos Loft - CA 1602-AU17-TULE PEN H 1 10:32:00.40 1179.300 00:00:25 Yes
15 H & H Loft - TX 6907-AU17-VK BCH C 1 10:32:02.90 1178.794 00:00:28 Yes
16 Upper Canada Loft - ON 2865-CU17-MISS Nineteen x The Duchess BB H 1 10:33:17.50 1163.883 00:01:42 Yes
17 Erp -Duviel_ubaldo Team - GA 0048-AU17-ERP Ronda BB H 1 10:33:20.50 1163.291 00:01:45 Yes
18 Sanso Loft - FL 3915-AU17-HRPC BCH H 1 10:33:42.50 1158.970 00:02:07 Yes
19 America\'s Dream Loft - IL 0065-AU17-ADL BWF C 1 10:33:42.90 1158.892 00:02:08 Yes
20 Stevens Family Loft - IL 0018-AU17-MRPC BCH C 1 10:33:44.80 1158.520 00:02:09 Yes
21 Tegan Bogoslawski - IN 0090-AU17-ANDY BB H 1 10:33:49.30 1157.641 00:02:14 Yes
22 Jorge And Ayon - CA 2453-AU17-LOSB BCH C 1 10:33:51.80 1157.153 00:02:16 Yes
23 Book & Van Wingerden - AZ 7005-AU17-BOOK BBPD H 2 10:35:45.20 1135.446 00:04:10 Yes
24 Max - CA 0901-AU17-MAX BB H 1 10:35:48.30 1134.864 00:04:13 Yes
25 Debbie Ganus - IN 0744-AU17-GFL BB H 1 10:35:49.20 1134.695 00:04:14 Yes
26 Ganus Family Loft - IN 0717-AU17-GFL BB H 1 10:35:54.30 1133.740 00:04:19 Yes
27 Aubrina & Pappy - IN 0906-AU17-VK BSP H 2 10:35:55.70 1133.478 00:04:20 Yes
28 Sanso Loft - FL 0296-AU17-RAND Spitfire BB H 2 10:35:56.30 1133.365 00:04:21 Yes
29 Pl Abasolo Family Loft - IL 0816-AU17-LCC Airwolf V BB H 1 10:35:56.70 1133.290 00:04:21 Yes
30 Schillings - IN 0868-AU17-BFS Big John BB C 1 10:35:57.50 1133.141 00:04:22 Yes
31 Twin Loft - FL 0589-AU17-HRPC BCH H 1 10:35:57.90 1133.066 00:04:23 Yes
32 Book & Van Wingerden - AZ 7000-AU17-BOOK Wacko's Park Place BB H 3 10:35:59.10 1132.842 00:04:24 Yes
33 Mesopotamia Loft - MN 5332-AU17-VK BWF H 1 10:35:59.60 1132.748 00:04:24 Missing
34 A P C Loft - TX 17035-AU17-APC BB H 1 10:36:00.00 1132.673 00:04:25 Yes
35 Ganus Family Loft - IN 0328-AU17-GFL BB H 2 10:36:01.30 1132.430 00:04:26 Yes
36 Aubrina & Pappy - IN 0907-AU17-VK DCH H 3 10:36:01.80 1132.337 00:04:26 Yes
37 H & H Loft - TX 6903-AU17-VK BB C 2 10:36:03.50 1132.019 00:04:28 Yes
38 Andy Skwiat - IN 0015-AU17-ANDY DCSP C 6 10:36:04.00 1131.926 00:04:29 Yes
39 G & L Loft - OR 2321-AU17-WPC BCH H 1 10:36:04.70 1131.795 00:04:29 Yes
40 Dickson Loft - OK 7026-AU17-ARKO BB H 1 10:36:05.30 1131.684 00:04:30 Yes
41 Ganus Family Loft - IN 0721-AU17-GFL BB H 3 10:36:05.80 1131.590 00:04:30 Yes
42 Mc Laughlin Lofts - MA 1008-AU17-MCLO BB H 2 10:36:08.10 1131.161 00:04:33 Yes
43 Bill Kluge - TX 1725-AU17-COLD 30 BCH C 2 10:36:08.60 1131.068 00:04:33 Yes
44 Bob Niemeyer - CA 0787-AU17-KEYH BB H 1 10:36:09.10 1130.975 00:04:34 Yes
45 Aubrina & Pappy - IN 0915-AU17-VK BCH H 4 10:36:09.80 1130.845 00:04:34 Yes
46 Dan & Pete - IL 0010-AU17-BFS BB H 1 10:36:11.20 1130.584 00:04:36 Yes
47 Debbie Ganus - IN 0323-AU17-GFL BB H 2 10:36:11.30 1130.565 00:04:36 Yes
48 Ken Easley & Son Racing - NM 5023-AU17-EASL 4402 x 420 CH H 1 10:36:13.00 1130.249 00:04:38 Yes
49 Twin Loft - FL 4415-AU17-VK BB H 2 10:36:14.90 1129.895 00:04:40 Yes
50 Monsters Of The Midway Loft - IL 3066-AU17-FOYS Unexpected BWF H 1 10:36:15.60 1129.765 00:04:40 Yes
51 Jones Family Loft - TX 0742-AU17-KJ BCH H 2 10:36:19.00 1129.133 00:04:44 Yes
52 Team Sandy - IN 0039-AU17-ANDY Crystal Sands CHSP H 1 10:36:19.50 1129.040 00:04:44 Yes
53 Andy Skwiat - IN 17117-AU17-TWOB BSWF C 7 10:36:24.30 1128.149 00:04:49 Yes
54 Andy Skwiat - IN 0002-AU17-GARY BBPD H 8 10:36:24.90 1128.038 00:04:50 Yes
55 Twin Loft - FL 0590-AU17-HRPC BB H 3 10:36:27.20 1127.612 00:04:52 Yes
55 Baczynski Loft - IN 11631-AU17-CHIC BWF H 1 10:36:27.20 1127.612 00:04:52 Yes
57 Patrick Kwan - CA 0713-AU17-KWAN BB H 1 10:36:27.70 1127.519 00:04:52 Yes
58 Hillside Loft - ME 17049-AU17-AGD Oumuamua BB C 1 10:36:31.70 1126.779 00:04:56 Yes
59 Sanso Loft - FL 3902-AU17-HRPC BB H 3 10:36:32.30 1126.668 00:04:57 Yes
60 Gibara Loft - FL 2624-AU17-HRPC BCH H 1 10:36:33.30 1126.483 00:04:58 Yes
61 Zapopan-Palomar-Ayon Loft - TX 0435-AU17-PALO BPD H 1 10:36:34.20 1126.317 00:04:59 Yes
62 Van Den Bossche Brothers - ME 8827-AU17-KV Casanova BB H 1 10:36:35.80 1126.021 00:05:00 Yes
63 Tegan Bogoslawski - IN 0065-AU17-ANDY BB H 2 10:36:52.40 1122.963 00:05:17 Yes
64 Rpm Syndicate - ON 0104-IF17-BUFF BB C 1 10:36:57.90 1121.954 00:05:22 Yes
65 A F L - GA 0155-AU17-AFL ,,SAMANTHA'' BB H 1 10:37:41.30 1114.051 00:06:06 Yes
66 Rpm Syndicate - ON 0127-IF17-BUFF BWF H 2 10:38:19.20 1107.240 00:06:44 Yes
67 Aztec Loft - DE 0016-AU17-FCI BB C 1 10:38:19.90 1107.115 00:06:44 Yes
68 F T L Loft - IN 0028-AU17-HUTC CHSP H 1 10:38:21.10 1106.900 00:06:46 Yes
69 Andy Skwiat - IN 0022-AU17-ANDY BB H 9 10:38:22.60 1106.633 00:06:47 Yes
70 Malloy Flying Loft - TX 0129-AU17-MALL BWF H 1 10:38:23.20 1106.526 00:06:48 Yes
71 Bird Dog Syndicate 2 - CA 0028-AU17-BURG BCH H 1 10:38:24.80 1106.240 00:06:49 Yes
71 Alca Girls - IL 0875-AU17-RRV Midnight Rambler BCH C 2 10:38:24.80 1106.240 00:06:49 Yes
73 Andy Skwiat - IN 2969-AU17-APOL BWF H 10 10:38:25.80 1106.062 00:06:50 Yes
74 Mc Laughlin Lofts - MA 1023-AU17-MCLO BCH H 3 10:38:26.90 1105.866 00:06:52 Yes
75 Floden Lofts - KY 5054-AU17-VK BB H 1 10:38:27.40 1105.777 00:06:52 Yes
76 Andy Skwiat - IN 0834-AU17-JRL BB H 11 10:38:27.90 1105.688 00:06:53 Yes
77 777-Loft - MN 0206-AU17-SPR It's Crazy.... BB H 1 10:38:30.40 1105.243 00:06:55 Yes
78 Andy Skwiat - IN 0029-AU17-ANDY BSP H 12 10:38:30.90 1105.154 00:06:56 Yes
79 Hylek Loft - IN 0305-AU17-MICH BB C 1 10:38:32.40 1104.887 00:06:57 Yes
80 America\'s Dream Loft - IL 0032-AU17-ADL RCH C 2 10:38:33.30 1104.727 00:06:58 Yes
81 Orozco's Loft - MI 0017-AU17-OROZ BB C 1 10:38:34.80 1104.460 00:06:59 Yes
82 Max - CA 0912-AU17-MAX BB H 2 10:38:38.80 1103.750 00:07:03 Yes
83 Andy Skwiat - IN 0006-AU17-ANDY BB H 13 10:38:40.00 1103.537 00:07:05 Yes
84 Ganus Family Loft - IN 0731-AU17-GFL STOCK MARKET BB H 4 10:38:40.40 1103.466 00:07:05 Yes
85 F T L Loft - IN 0037-AU17-HUTC BB H 2 10:38:40.90 1103.377 00:07:06 Yes
86 H & H Loft - TX 6918-AU17-VK BB C 3 10:38:45.00 1102.651 00:07:10 Yes
87 Jorge And Ayon - CA 2412-AU17-LOSB BB H 2 10:38:47.10 1102.279 00:07:12 Yes
88 Dos Hermano & Yosellaj Loft - FL 4413-AU17-HRPC !My Dream! BB C 1 10:38:50.90 1101.607 00:07:15 Yes
89 Upper Canada Loft - ON 2851-CU17-MISS Cigar Cock x Marshmallow BB H 2 10:39:11.90 1097.906 00:07:37 Yes
90 Daehn/Miele - FL 0208-AU17-NWFI 217 X 790 BB H 1 10:39:12.60 1097.783 00:07:37 Yes
91 Book & Van Wingerden - AZ 7013-AU17-BOOK Paloma Dorado BB C 4 10:39:14.20 1097.502 00:07:39 Yes
92 Bird Dog Syndicate 2 - CA 0009-AU17-BURG CHWF H 2 10:39:14.70 1097.415 00:07:39 Yes
93 Ken Easley & Son Racing - NM 5017-AU17-EASL 1139 x 119 BBPD H 2 10:39:58.50 1089.783 00:08:23 Yes
94 Bird Dog Syndicate 2 - CA 0025-AU17-BURG BB H 3 10:39:59.90 1089.541 00:08:25 Yes
95 3s Lofts - CA 0227-AU17-VIP Who's Your Daddy SILV H 1 10:40:02.50 1089.092 00:08:27 Yes
96 Sandstrom Brothers Loft - MN 0723-AU17-SBL BCPD H 1 10:40:39.20 1082.786 00:09:04 Yes
97 A F L - GA 0143-AU17-AFL ,,BLUELLA'' BB H 2 10:42:33.90 1063.543 00:10:59 Yes
98 777-Loft - MN 0203-AU17-SPR Next Jen BCWF H 2 10:42:35.80 1063.230 00:11:00 Yes
99 Aubrina & Pappy - IN 0912-AU17-VK BSP H 5 10:42:39.00 1062.703 00:11:04 Yes
100 Orozco's Loft - MI 0061-AU17-OROZ CHSP H 2 10:42:46.00 1061.553 00:11:11 Yes

There are 324 bird records

Note: These Race Results are unofficial and subject to change until verified by the Race Committee and declared final.